Погода в Сулехуве

Польша     52°05′29″N   15°37′22″E
темп.,
°C
ветер,
м/с
пор.,
м/с
влажн.,
%
обл.,
%
осадки,
мм/ч
давл.,
гПа
погр.,
м
25 февраля, чт
чт2501:00+8юз23890 0.0 103143
04:00+8юз23890 0.0 103034
07:00+7ююз23870 0.0 102929
10:00+12юз36690 0.0 1028239
13:00+17юз37570 0.0 1027474
16:00+16юз37630 0.0 1026338
19:00+11зюз36840 0.0 1027126
22:00+9зюз37910 0.0 1028149
26 февраля, пт
пт2601:00+8з36940 0.0 1029142
04:00+7з259661 0.0 1028104
07:00+6зсз129758 0.0 102926
10:00+7зсз2595100 0.5 1029264
13:00+7з3782100 1.3 1029364
16:00+7з3778100 0.1 1028629
19:00+5з379183 0.1 1029194
22:00+5зсз398335 0.1 1030383
27 февраля, сб
сб2701:00+3зсз498951 0.1 1030332
04:00+2зсз410920 0.0 1030416
07:00+2зсз599222 0.0 1031552
10:00+3зсз4789100 0.0 1032621
13:00+5зсз3682100 0.0 1033626
16:00+6сз357692 0.0 1033778
19:00+3з359177 0.0 1035109
22:00+1з24960 0.0 1035109
28 февраля, вс
вс2801:000зсз229615 0.0 103647
04:000з23958 0.0 103562
07:000з259815 0.0 1035151
10:00+3з248676 0.0 1035319
13:00+8зсз236443 0.0 1035728
16:00+8сз13680 0.0 1034814
19:00+4сз11863 0.0 103422
22:00+5ссз118291 0.0 103622
1 марта, пн
пн101:00+5юв118296 0.0 103624
04:00+4ю128497 0.0 103623
07:00+3юв128979 0.0 103727
10:00+6юв237221 0.0 1038364
13:00+9юв245611 0.0 1038855
16:00+9юв34580 0.0 1038827
19:00+4вюв24760 0.0 103895
22:00+3юв37840 0.0 1038169